Weather History for Imperial, CA

Change the Weather History Date:

Thursday, August 1, 2013

  Actual Average Record
Temperature  
Mean Temperature 94 °F -  
Max Temperature 109 °F 107 °F 118 °F (1993)
Min Temperature 80 °F 80 °F 64 °F (1999)
Cooling Degree Days 30    
Growing Degree Days 44 (Base 50)    
Moisture  
Dew Point 43 °F    
Average Humidity 18    
Maximum Humidity 30    
Minimum Humidity 9    
Precipitation  
Precipitation 0.00 in - - ()
Sea Level Pressure  
Sea Level Pressure 29.75 in    
Wind  
Wind Speed 2 mph (NNE)    
Max Wind Speed 10 mph    
Max Gust Speed 18 mph    
Visibility 10 miles    
Events      
Averages and records for this station are not official NWS values.
T = Trace of Precipitation, MM = Missing Value Source: NWS Daily Summary

Daily Weather History Graph

Daily Weather History Graph

Search for Another Location

Airport:

Trip Planner

Search our weather history database for the weather conditions in past years. The results will help you decide how hot, cold, wet, or windy it might be!

Date:

Astronomy

Aug. 01, 2013 Rise Set
Actual Time 5:56 AM PDT 7:40 PM PDT
Civil Twilight 5:29 AM PDT 8:07 PM PDT
Nautical Twilight 4:56 AM PDT 8:39 PM PDT
Astronomical Twilight 4:22 AM PDT 9:13 PM PDT
Moon 1:37 AM PDT (8/1) 3:50 PM PDT (8/1)
Length of Visible Light 14h 38m
Length of Day
13h 44m
Waning Crescent, 22% of the Moon is Illuminated
Aug 1
Waning Crescent
Aug 6
New
Aug 14
First Quarter
Aug 20
Full
Aug 28
Last Quarter

Hourly Weather History & Observations

Time (PDT) Temp. Heat Index Dew Point Humidity Pressure Visibility Wind Dir Wind Speed Gust Speed Precip Events Conditions
12:53 AM 86.0 °F - 34.0 °F 16% 29.79 in 10.0 mi Calm Calm - N/A   Clear
1:53 AM 82.9 °F - 39.0 °F 21% 29.78 in 10.0 mi Calm Calm - N/A   Clear
2:53 AM 82.0 °F - 43.0 °F 25% 29.76 in 10.0 mi Calm Calm - N/A   Clear
3:53 AM 81.0 °F - 39.9 °F 23% 29.76 in 10.0 mi Calm Calm - N/A   Clear
4:53 AM 80.1 °F - 39.0 °F 23% 29.77 in 10.0 mi Calm Calm - N/A   Clear
5:53 AM 81.0 °F - 44.1 °F 27% 29.78 in 10.0 mi Calm Calm - N/A   Clear
6:53 AM 82.0 °F - 46.9 °F 29% 29.80 in 10.0 mi Calm Calm - N/A   Clear
7:53 AM 89.1 °F 86.9 °F 54.0 °F 30% 29.81 in 10.0 mi Calm Calm - N/A   Clear
8:53 AM 93.9 °F - 52.0 °F 24% 29.82 in 10.0 mi ENE 5.8 mph - N/A   Clear
9:53 AM 97.0 °F - 43.0 °F 16% 29.81 in 10.0 mi NE 5.8 mph - N/A   Clear
10:53 AM 100.9 °F - 32.0 °F 9% 29.81 in 10.0 mi North 4.6 mph - N/A   Clear
11:53 AM 102.0 °F - 37.0 °F 11% 29.79 in 10.0 mi Variable 3.5 mph - N/A   Clear
12:53 PM 106.0 °F - 35.1 °F 9% 29.77 in 10.0 mi ENE 8.1 mph - N/A   Clear
1:53 PM 107.1 °F - 42.1 °F 11% 29.75 in 10.0 mi NE 3.5 mph - N/A   Clear
2:53 PM 108.0 °F - 48.0 °F 13% 29.72 in 10.0 mi East 4.6 mph - N/A   Clear
3:53 PM 109.0 °F - 48.0 °F 13% 29.68 in 10.0 mi Variable 4.6 mph - N/A   Clear
4:53 PM 109.0 °F - 46.9 °F 13% 29.66 in 10.0 mi Calm Calm - N/A   Clear
5:53 PM 109.0 °F 107.4 °F 53.1 °F 16% 29.65 in 10.0 mi SE 10.4 mph - N/A   Clear
6:53 PM 102.9 °F - 37.9 °F 11% 29.66 in 10.0 mi West 9.2 mph 18.4 mph N/A   Clear
7:53 PM 99.0 °F - 37.9 °F 12% 29.69 in 10.0 mi Calm Calm - N/A   Clear
8:53 PM 93.9 °F - 42.1 °F 17% 29.71 in 10.0 mi ENE 3.5 mph - N/A   Clear
9:53 PM 89.1 °F - 44.1 °F 21% 29.72 in 10.0 mi West 8.1 mph - N/A   Clear
10:53 PM 88.0 °F - 43.0 °F 21% 29.73 in 10.0 mi NW 4.6 mph - N/A   Clear
11:53 PM 86.0 °F - 42.1 °F 21% 29.73 in 10.0 mi NW 5.8 mph - N/A   Clear